Regional Weather Roundup
Issued by NWS

Home | Current Version | Previous Version | Text Only | Print | Product List | Glossary Off
Versions: 1 2 3 4 5 6 7 8 9 10 11 12 13 14 15 16 17 18 19 20 21 22 23 24 25 26 27 28 29 30 31 32 33 34 35 36 37 38 39 40 41 42 43 44 45 46 47 48 49 50

000
ASUS45 KCYS 252210
RWRWY

WYOMING REGIONAL WEATHER ROUNDUP
NATIONAL WEATHER SERVICE CHEYENNE WY
400 PM MDT MON MAY 25 2015

NOTE:  "FAIR" INDICATES FEW OR NO CLOUDS BELOW 12,000 FEET
WITH NO SIGNIFICANT WEATHER AND/OR OBSTRUCTIONS TO VISIBILITY.

WYZ001-252300-
YELLOWSTONE NATIONAL PARK

CITY           SKY/WX    TMP DP  RH WIND       PRES   REMARKS
LK YELLOWSTONE   N/A     48  40  73 CALM      30.05F
W YELLOWSTONE  NOT AVBL

$$
WYZ002>013-054>058-071-098>099-252300-
NORTHERN WYOMING

CITY           SKY/WX    TMP DP  RH WIND       PRES   REMARKS
JACKSON        PTSUNNY   57  37  47 SE12      29.97S
CODY           FAIR      55  43  62 W3        29.94F
GREYBULL       FAIR      64  47  53 SE12      29.90F
WORLAND        PTSUNNY   65  46  50 NW9       29.89F
SHERIDAN       PTSUNNY   61  49  64 N13       29.92F
BUFFALO        PTSUNNY   57  46  66 VRB3      29.95S
GILLETTE       CLOUDY    57  49  74 NE6       29.92S
HULETT         CLOUDY    54  52  94 NE7       29.93R
NEWCASTLE      MOCLDY    61  45  55 N8        29.87S

$$
WYZ014>020-022>026-101>103-252300-
CENTRAL WYOMING

CITY           SKY/WX    TMP DP  RH WIND       PRES   REMARKS
BIG PINEY      HVY RAIN  44  39  82 NW13G26   30.05R
PINEDALE       CLOUDY    52  36  54 NW8       30.04F
DUBOIS         MOCLDY    50  41  71 S10G25    29.98R
LANDER         FAIR      58  46  64 SE10      29.95S
RIVERTON       PTSUNNY   58  45  62 N9        29.96S
CASPER         PTSUNNY   63  42  46 VRB7      29.94S
DOUGLAS        PTSUNNY   54  49  83 N8        29.93S

$$
WYZ021-027>030-104>119-252300-
SOUTHERN WYOMING

CITY           SKY/WX    TMP DP  RH WIND       PRES   REMARKS
EVANSTON       FAIR      53  39  59 S7        30.04F
KEMMERER       FAIR      52  37  58 CALM      30.04F
FORT BRIDGER   RAIN      50  41  71 CALM      30.08R
ROCK SPRINGS   CLOUDY    52  42  69 E22       30.01S
DIXON          FAIR      51  41  68 N10       30.05S
RAWLINS        FAIR      55  38  52 NW12      29.99S
SARATOGA       CLOUDY    52  39  62 W12       30.01S
LARAMIE        FAIR      54  38  54 N17       29.97F
CHEYENNE       PTSUNNY   57  42  57 N15G21    29.94S
TORRINGTON     PTSUNNY   59  50  72 NW7       29.86S
PINE BLUFFS    FAIR      54  45  71 MISG      29.93F

$$



USA.gov is the U.S. government's official web portal to all federal, state and local government web resources and services.